When you browse on this site, cookies collect data to enhance your experience and personalize the content and advertising you see.
Visit our Privacy Policy to learn more. By continuing to use the site, you agree to this use of cookies and data.
  • In Czech Republic
  • List of Countries
  • For 7 days
  • Water Temperature
  • Satellite Maps
  • Weather Map
  • Weather Widgets
  • user-avatar
    Login

    Hourly Weather Siempang

    Today, 18 April, Thursday

    Time Temperature Precipitation Wind Pressure Humidity
    00:00 +26°C° 0 mm 0 mps 751 mmHg 86%
    01:00 +26°C° 0 mm 0 mps 751 mmHg 87%
    02:00 +26°C° 0 mm 0 mps 750 mmHg 88%
    03:00 +26°C° 0 mm 0 mps 750 mmHg 89%
    04:00 +25°C° 0 mm 0 mps 750 mmHg 89%
    05:00 +26°C° 0 mm 0 mps 751 mmHg 86%
    06:00 +27°C° 0 mm 0 mps 751 mmHg 83%
    07:00 +28°C° 0 mm 0 mps 752 mmHg 77%
    08:00 +32°C° 0 mm 1 mps 752 mmHg 69%
    09:00 +34°C° 0 mm 1 mps 752 mmHg 61%
    10:00 +36°C° 0 mm 1 mps 752 mmHg 54%
    11:00 +37°C° 0 mm 1 mps 751 mmHg 50%
    12:00 +40°C° 0 mm 1 mps 750 mmHg 46%
    13:00 +39°C° 0 mm 1 mps 750 mmHg 45%
    14:00 +39°C° 0 mm 1 mps 749 mmHg 46%
    15:00 +39°C° 0 mm 1 mps 749 mmHg 46%
    16:00 +39°C° 0 mm 1 mps 748 mmHg 46%
    17:00 +36°C° 0 mm 1 mps 748 mmHg 52%
    18:00 +34°C° 0 mm 1 mps 749 mmHg 58%
    19:00 +32°C° 0 mm 1 mps 749 mmHg 67%
    20:00 +30°C° 0.1 mm 0 mps 749 mmHg 70%
    21:00 +29°C° 0.1 mm 0 mps 750 mmHg 73%
    22:00 +28°C° 0.1 mm 0 mps 750 mmHg 76%
    23:00 +28°C° 0 mm 0 mps 750 mmHg 78%

    Tomorrow, 19 April, Friday

    Time Temperature Precipitation Wind Pressure Humidity
    00:00 +28°C° 0 mm 0 mps 750 mmHg 80%
    01:00 +27°C° 0 mm 0 mps 750 mmHg 81%
    02:00 +27°C° 0 mm 0 mps 750 mmHg 83%
    03:00 +27°C° 0 mm 0 mps 750 mmHg 85%
    04:00 +28°C° 0 mm 1 mps 749 mmHg 86%
    05:00 +29°C° 0.1 mm 1 mps 750 mmHg 85%
    06:00 +29°C° 0.1 mm 1 mps 750 mmHg 84%
    07:00 +29°C° 0.1 mm 1 mps 751 mmHg 82%
    08:00 +31°C° 0 mm 1 mps 751 mmHg 76%
    09:00 +33°C° 0 mm 1 mps 751 mmHg 69%
    10:00 +34°C° 0 mm 1 mps 751 mmHg 62%
    11:00 +36°C° 0 mm 1 mps 751 mmHg 56%
    12:00 +39°C° 0 mm 1 mps 750 mmHg 51%
    13:00 +40°C° 0 mm 1 mps 749 mmHg 45%
    14:00 +40°C° 0 mm 1 mps 749 mmHg 46%
    15:00 +39°C° 0 mm 1 mps 748 mmHg 48%
    16:00 +37°C° 0 mm 1 mps 747 mmHg 50%
    17:00 +36°C° 0 mm 1 mps 747 mmHg 55%
    18:00 +32°C° 0 mm 0 mps 748 mmHg 60%
    19:00 +31°C° 0 mm 0 mps 748 mmHg 64%
    20:00 +30°C° 0.3 mm 0 mps 748 mmHg 68%
    21:00 +29°C° 0.3 mm 0 mps 749 mmHg 71%
    22:00 +29°C° 0.3 mm 0 mps 749 mmHg 75%
    23:00 +28°C° 1 mm 0 mps 749 mmHg 78%

    Day after tomorrow, 20 April, Saturday

    Time Temperature Precipitation Wind Pressure Humidity
    00:00 +28°C° 1 mm 0 mps 749 mmHg 81%
    01:00 +27°C° 1 mm 0 mps 749 mmHg 84%
    02:00 +27°C° 0.1 mm 0 mps 749 mmHg 85%
    03:00 +27°C° 0.1 mm 0 mps 749 mmHg 86%
    04:00 +27°C° 0.1 mm 0 mps 748 mmHg 86%
    05:00 +27°C° 0.2 mm 0 mps 749 mmHg 86%
    06:00 +29°C° 0.2 mm 1 mps 749 mmHg 85%
    07:00 +29°C° 0.2 mm 1 mps 750 mmHg 85%
    08:00 +31°C° 0 mm 1 mps 750 mmHg 76%
    09:00 +32°C° 0 mm 1 mps 750 mmHg 67%
    10:00 +34°C° 0 mm 1 mps 750 mmHg 58%
    11:00 +36°C° 0 mm 1 mps 750 mmHg 53%
    12:00 +39°C° 0 mm 1 mps 749 mmHg 47%
    13:00 +41°C° 0 mm 1 mps 748 mmHg 41%
    14:00 +41°C° 0 mm 1 mps 747 mmHg 41%
    15:00 +40°C° 0 mm 1 mps 747 mmHg 41%
    16:00 +40°C° 0 mm 1 mps 746 mmHg 41%
    17:00 +37°C° 0 mm 1 mps 746 mmHg 47%
    18:00 +33°C° 0 mm 0 mps 746 mmHg 53%
    19:00 +31°C° 0 mm 0 mps 747 mmHg 59%
    20:00 +31°C° 0.1 mm 0 mps 747 mmHg 63%
    21:00 +30°C° 0.1 mm 0 mps 748 mmHg 67%
    22:00 +29°C° 0.1 mm 0 mps 749 mmHg 72%
    23:00 +28°C° 0.5 mm 0 mps 749 mmHg 76%

    21 April, Sunday

    Time Temperature Precipitation Wind Pressure Humidity
    00:00 +28°C° 0.5 mm 0 mps 748 mmHg 80%
    01:00 +27°C° 0.5 mm 0 mps 748 mmHg 84%
    02:00 +27°C° 0.5 mm 0 mps 748 mmHg 86%
    03:00 +28°C° 0.5 mm 1 mps 748 mmHg 89%
    04:00 +28°C° 0.5 mm 1 mps 748 mmHg 91%
    05:00 +28°C° 0 mm 1 mps 748 mmHg 88%
    06:00 +29°C° 0 mm 1 mps 749 mmHg 86%
    07:00 +29°C° 0 mm 1 mps 750 mmHg 83%
    08:00 +31°C° 0 mm 1 mps 750 mmHg 74%
    09:00 +33°C° 0 mm 1 mps 750 mmHg 64%
    10:00 +35°C° 0 mm 1 mps 750 mmHg 55%
    11:00 +37°C° 0 mm 1 mps 750 mmHg 50%
    12:00 +40°C° 0 mm 1 mps 749 mmHg 44%
    13:00 +42°C° 0 mm 1 mps 748 mmHg 39%
    14:00 +42°C° 0 mm 1 mps 747 mmHg 38%
    15:00 +39°C° 0 mm 0 mps 747 mmHg 37%
    16:00 +39°C° 0 mm 0 mps 746 mmHg 35%
    17:00 +36°C° 0 mm 0 mps 746 mmHg 42%
    18:00 +34°C° 0 mm 0 mps 747 mmHg 49%
    19:00 +34°C° 0 mm 1 mps 747 mmHg 55%
    20:00 +33°C° 0 mm 1 mps 748 mmHg 58%
    21:00 +30°C° 0 mm 0 mps 748 mmHg 60%
    22:00 +30°C° 0 mm 0 mps 749 mmHg 63%
    23:00 +29°C° 0 mm 0 mps 749 mmHg 65%

    22 April, Monday

    Time Temperature Precipitation Wind Pressure Humidity
    00:00 +29°C° 0 mm 0 mps 748 mmHg 68%
    01:00 +28°C° 0 mm 0 mps 748 mmHg 70%
    02:00 +28°C° 0 mm 0 mps 748 mmHg 72%
    03:00 +27°C° 0 mm 0 mps 748 mmHg 75%
    04:00 +27°C° 0 mm 0 mps 748 mmHg 77%
    05:00 +30°C° 0 mm 1 mps 749 mmHg 75%
    06:00 +30°C° 0 mm 1 mps 750 mmHg 74%
    07:00 +31°C° 0 mm 1 mps 750 mmHg 73%
    08:00 +33°C° 0 mm 1 mps 750 mmHg 65%
    09:00 +35°C° 0 mm 1 mps 751 mmHg 58%
    10:00 +37°C° 0 mm 1 mps 751 mmHg 50%
    11:00 +40°C° 0 mm 1 mps 750 mmHg 45%
    12:00 +42°C° 0 mm 1 mps 749 mmHg 40%
    13:00 +43°C° 0 mm 1 mps 748 mmHg 35%
    14:00 +43°C° 0 mm 1 mps 748 mmHg 36%
    15:00 +42°C° 0 mm 1 mps 747 mmHg 36%
    16:00 +41°C° 0 mm 1 mps 747 mmHg 37%
    17:00 +39°C° 0 mm 1 mps 747 mmHg 42%
    18:00 +36°C° 0 mm 1 mps 748 mmHg 48%
    19:00 +34°C° 0 mm 1 mps 748 mmHg 53%
    20:00 +33°C° 0 mm 1 mps 749 mmHg 57%
    21:00 +32°C° 0 mm 1 mps 750 mmHg 60%
    22:00 +30°C° 0 mm 0 mps 750 mmHg 64%
    23:00 +29°C° 0 mm 0 mps 750 mmHg 66%

    23 April, Tuesday

    Time Temperature Precipitation Wind Pressure Humidity
    00:00 +29°C° 0 mm 0 mps 749 mmHg 67%
    01:00 +28°C° 0 mm 0 mps 749 mmHg 69%
    02:00 +30°C° 0 mm 1 mps 749 mmHg 70%
    03:00 +30°C° 0 mm 1 mps 749 mmHg 71%
    04:00 +30°C° 0 mm 1 mps 749 mmHg 72%
    05:00 +30°C° 0 mm 1 mps 750 mmHg 70%
    06:00 +30°C° 0 mm 1 mps 751 mmHg 67%
    07:00 +31°C° 0 mm 1 mps 751 mmHg 64%
    08:00 +33°C° 0 mm 1 mps 751 mmHg 57%
    09:00 +35°C° 0 mm 1 mps 752 mmHg 50%
    10:00 +37°C° 0 mm 1 mps 752 mmHg 43%
    11:00 +40°C° 0 mm 1 mps 751 mmHg 40%
    12:00 +41°C° 0 mm 1 mps 750 mmHg 36%
    13:00 +43°C° 0 mm 1 mps 749 mmHg 33%
    14:00 +43°C° 0 mm 1 mps 749 mmHg 32%
    15:00 +40°C° 0 mm 0 mps 748 mmHg 32%
    16:00 +39°C° 0 mm 0 mps 748 mmHg 32%
    17:00 +37°C° 0 mm 0 mps 748 mmHg 37%
    18:00 +35°C° 0 mm 0 mps 749 mmHg 42%
    19:00 +32°C° 0 mm 0 mps 749 mmHg 47%
    20:00 +32°C° 0 mm 0 mps 749 mmHg 49%
    21:00 +31°C° 0 mm 0 mps 750 mmHg 52%
    22:00 +30°C° 0 mm 0 mps 750 mmHg 54%
    23:00 +30°C° 0 mm 0 mps 750 mmHg 56%
    Show more